CST,Max TemperatureF,Mean TemperatureF,Min TemperatureF,Max Dew PointF,MeanDew PointF,Min DewpointF,Max Humidity, Mean Humidity, Min Humidity, Max Sea Level PressureIn, Mean Sea Level PressureIn, Min Sea Level PressureIn, Max VisibilityMiles, Mean VisibilityMiles, Min VisibilityMiles, Max Wind SpeedMPH, Mean Wind SpeedMPH, Max Gust SpeedMPH,PrecipitationIn, CloudCover, Events, WindDirDegrees
2013-2-1,61,46,30,36,31,26,93,66,30,30.40,30.36,30.31,10,10,10,10,3,17,0.00,0,,337
2013-2-2,64,46,27,43,31,19,93,67,21,30.40,30.29,30.19,10,10,10,12,2,,0.00,1,Rain,203
2013-2-3,66,52,36,49,38,27,100,73,22,30.26,30.19,30.12,10,8,1,13,4,20,0.01,1,Rain,317
2013-2-4,64,50,35,51,42,33,97,71,37,30.14,30.08,30.01,10,10,10,7,1,,0.00,2,Rain,187
2013-2-5,66,60,53,59,55,52,100,91,78,30.07,30.03,29.99,10,7,0,5,1,,0.02,7,Fog-Rain,84
2013-2-6,73,62,52,57,56,51,100,86,53,30.17,30.10,30.06,10,6,0,8,3,,0.00,4,Fog,52
2013-2-7,73,63,53,63,58,53,100,92,61,30.06,29.91,29.82,10,6,0,16,4,28,1.84,6,Fog-Rain-Thunderstorm,43
2013-2-8,72,61,50,57,53,48,100,84,49,30.17,30.04,29.96,10,7,0,13,1,30,0.00,5,Fog,334
2013-2-9,68,55,42,49,41,34,97,69,28,30.27,30.21,30.17,10,9,6,8,4,,0.00,0,,68
2013-2-10,71,56,42,68,57,40,94,86,75,30.19,30.12,30.05,10,10,8,18,7,37,0.00,6,Rain-Thunderstorm,143
2013-2-11,77,67,57,70,65,56,100,92,79,30.13,30.08,30.03,10,6,1,15,8,22,1.27,8,Rain-Thunderstorm,251
2013-2-12,73,65,57,70,63,56,94,91,79,30.07,29.90,29.77,10,8,2,21,8,31,0.11,8,Rain-Thunderstorm,153
2013-2-13,71,60,46,68,55,43,94,85,56,30.06,29.90,29.78,10,8,5,20,9,24,0.06,5,Rain,284
2013-2-14,55,46,34,43,39,33,97,82,53,30.16,30.10,30.04,10,8,1,9,4,,0.00,0,,360
2013-2-15,66,48,30,44,37,30,96,71,29,30.18,30.10,30.04,10,9,6,7,1,,0.00,0,,335
2013-2-16,55,44,28,39,27,14,78,52,22,30.29,30.15,30.06,10,10,7,20,9,33,0.00,2,,317
2013-2-17,55,41,27,27,19,9,85,48,19,30.41,30.33,30.29,10,10,8,6,2,,0.00,0,,310
2013-2-18,63,46,28,41,38,34,71,51,34,30.35,30.26,30.10,10,10,10,14,4,22,0.00,1,,139
2013-2-19,68,54,35,61,50,24,94,71,32,30.20,30.10,30.03,10,9,4,16,8,24,0.03,6,Rain,272
2013-2-20,60,46,32,36,26,19,85,55,22,30.26,30.19,30.12,10,10,10,8,3,16,0.00,0,,16
2013-2-21,69,50,30,63,42,28,94,67,31,30.14,30.04,29.97,10,9,4,9,3,18,0.00,3,,121
2013-2-22,71,68,66,69,65,62,94,92,87,30.00,29.95,29.90,10,4,0,16,5,22,2.69,8,Fog-Rain-Thunderstorm,150
2013-2-23,72,64,57,70,60,54,94,89,82,29.96,29.89,29.81,10,7,2,17,8,22,0.59,8,Rain-Thunderstorm,310
2013-2-24,72,62,51,54,50,44,94,77,37,30.02,29.95,29.86,10,6,1,10,4,17,0.46,6,Rain-Thunderstorm,37
2013-2-25,66,60,55,63,57,54,94,90,73,29.91,29.79,29.56,10,7,2,14,7,22,0.96,8,Rain-Thunderstorm,77
2013-2-26,66,59,51,64,52,39,94,73,43,29.92,29.67,29.52,10,9,2,17,9,28,0.31,3,Rain,226
2013-2-27,64,54,43,42,39,35,89,64,34,30.03,29.97,29.93,10,10,6,10,3,17,0.00,0,,253
2013-2-28,62,52,42,43,34,28,89,54,28,30.08,30.02,29.98,10,10,9,15,6,22,0.00,0,,316